Tracking 27107 objects as of 22-Mar-2023
HD Live streaming from Space Station
objects crossing your sky now

TOS R/B

Track TOS R/B now!


NORAD ID: 22797
Int'l Code: 1993-058D
Perigee: 355.7 km
Apogee: 38,167.0 km
Inclination: 14.8 °
Period: 680.7 minutes
Semi major axis: 25632 km
RCS: 9.198 m2 (large)
Launch date: September 12, 1993
Source: United States (US)
Launch site: AIR FORCE EASTERN TEST RANGE (AFETR)

Note: This is a ROCKET BODY
Your satellite tracking list
Your tracking list is empty




NASA's NSSDC Master Catalog

Two Line Element Set (TLE):
1 22797U 93058D   23078.89226010  .00000822  00000-0  14959-2 0  9992
2 22797  14.8249 135.1879 7375700 356.6116   0.5321  2.11553407223161
Source of the keplerian elements: AFSPC